Weather History for KSLG - February, 2013

Change the Weather History Date:

Friday, February 22, 2013

  Actual Average Record
Temperature  
Mean Temperature 29 °F -  
Max Temperature 37 °F 49 °F - (-1)
Min Temperature 21 °F 32 °F - (-1)
Degree Days  
Heating Degree Days 36    
Moisture  
Dew Point 18 °F    
Average Humidity 63    
Maximum Humidity 80    
Minimum Humidity 45    
Precipitation  
Precipitation 0.00 in - - ()
Sea Level Pressure  
Sea Level Pressure 30.04 in    
Wind  
Wind Speed 10 mph (WNW)    
Max Wind Speed 18 mph    
Max Gust Speed 25 mph    
Visibility 10 miles    
Events      
Averages and records for this station are not official NWS values.
T = Trace of Precipitation, MM = Missing Value Source: NWS Daily Summary

Daily Weather History Graph

Daily Weather History Graph

Search for Another Location

Airport or City:

Trip Planner

Search our weather history database for the weather conditions in past years. The results will help you decide how hot, cold, wet, or windy it might be!

Date:

Astronomy

Feb. 22, 2013 Rise Set
Actual Time 6:56 AM CST 6:06 PM CST
Civil Twilight 6:30 AM CST 6:32 PM CST
Nautical Twilight 6:01 AM CST 7:02 PM CST
Astronomical Twilight 5:31 AM CST 7:32 PM CST
Moon 3:21 PM CST (2/22) 4:38 AM CST (2/22)
Length of Visible Light 12h 01m
Length of Day
11h 09m
Waxing Gibbous, 90% of the Moon is Illuminated
Feb 22
Waxing Gibbous
Feb 25
Full
Mar 4
Last Quarter
Mar 11
New
Mar 19
First Quarter

Hourly Weather History & Observations

Time (CST) Temp. Windchill Dew Point Humidity Pressure Visibility Wind Dir Wind Speed Gust Speed Precip Events Conditions
12:15 AM 33.8 °F 23.5 °F 26.6 °F 75% 29.89 in 10.0 mi WSW 16.1 mph - N/A   Unknown
12:55 AM 32.0 °F 22.1 °F 24.8 °F 75% 29.91 in 10.0 mi West 13.8 mph - N/A   Unknown
1:15 AM 30.2 °F 19.3 °F 24.8 °F 80% 29.93 in 10.0 mi West 15.0 mph 24.2 mph N/A   Unknown
1:35 AM 30.2 °F 20.8 °F 23.0 °F 75% 29.94 in 10.0 mi West 11.5 mph - N/A   Unknown
1:55 AM 28.4 °F 15.8 °F 21.2 °F 74% 29.95 in 10.0 mi West 18.4 mph 24.2 mph N/A   Unknown
2:15 AM 28.4 °F 18.0 °F 19.4 °F 69% 29.95 in 10.0 mi West 12.7 mph 25.3 mph N/A   Unknown
2:35 AM 26.6 °F 16.8 °F 19.4 °F 74% 29.94 in 10.0 mi West 10.4 mph - N/A   Unknown
2:55 AM 26.6 °F 13.8 °F 17.6 °F 69% 29.93 in 10.0 mi WNW 17.3 mph - N/A   Unknown
3:15 AM 24.8 °F 14.6 °F 15.8 °F 69% 29.94 in 10.0 mi West 10.4 mph - N/A   Unknown
3:35 AM 24.8 °F 14.6 °F 14.0 °F 64% 29.93 in 10.0 mi West 10.4 mph - N/A   Unknown
3:55 AM 23.0 °F 12.4 °F 14.0 °F 68% 29.94 in 10.0 mi West 10.4 mph - N/A   Unknown
4:15 AM 23.0 °F 13.1 °F 12.2 °F 63% 29.94 in 10.0 mi West 9.2 mph - N/A   Unknown
4:35 AM 23.0 °F 13.1 °F 12.2 °F 63% 29.95 in 10.0 mi WNW 9.2 mph - N/A   Unknown
4:55 AM 21.2 °F 11.7 °F 12.2 °F 68% 29.96 in 10.0 mi West 8.1 mph - N/A   Unknown
5:15 AM 21.2 °F 10.9 °F 12.2 °F 68% 29.98 in 10.0 mi WSW 9.2 mph - N/A   Unknown
5:35 AM 21.2 °F 11.7 °F 12.2 °F 68% 29.99 in 10.0 mi West 8.1 mph - N/A   Unknown
5:55 AM 21.2 °F 11.7 °F 12.2 °F 68% 30.00 in 10.0 mi West 8.1 mph - N/A   Unknown
6:15 AM 21.2 °F 12.6 °F 12.2 °F 68% 30.00 in 10.0 mi West 6.9 mph - N/A   Unknown
6:35 AM 21.2 °F 12.6 °F 12.2 °F 68% 30.00 in 10.0 mi West 6.9 mph - N/A   Unknown
6:55 AM 21.2 °F 13.6 °F 12.2 °F 68% 30.01 in 10.0 mi West 5.8 mph - N/A   Unknown
7:35 AM 21.2 °F 12.6 °F 14.0 °F 74% 30.03 in 10.0 mi WNW 6.9 mph - N/A   Unknown
7:55 AM 21.2 °F 10.9 °F 14.0 °F 74% 30.04 in 10.0 mi West 9.2 mph - N/A   Unknown
8:15 AM 23.0 °F 13.1 °F 15.8 °F 74% 30.06 in 10.0 mi West 9.2 mph - N/A   Unknown
8:35 AM 23.0 °F 14.7 °F 15.8 °F 74% 30.06 in 10.0 mi West 6.9 mph - N/A   Unknown
8:55 AM 24.8 °F 16.9 °F 15.8 °F 69% 30.08 in 10.0 mi West 6.9 mph - N/A   Unknown
9:15 AM 24.8 °F 16.9 °F 15.8 °F 69% 30.09 in 10.0 mi West 6.9 mph - N/A   Unknown
9:35 AM 26.6 °F 17.5 °F 15.8 °F 64% 30.10 in 10.0 mi WSW 9.2 mph - N/A   Unknown
9:55 AM 26.6 °F 18.2 °F 17.6 °F 69% 30.10 in 10.0 mi West 8.1 mph - N/A   Unknown
10:15 AM 26.6 °F 16.8 °F 15.8 °F 64% 30.10 in 10.0 mi WNW 10.4 mph - N/A   Unknown
10:35 AM 28.4 °F 20.4 °F 17.6 °F 64% 30.11 in 10.0 mi West 8.1 mph - N/A   Unknown
10:55 AM 28.4 °F 20.4 °F 17.6 °F 64% 30.11 in 10.0 mi WNW 8.1 mph - N/A   Unknown
11:15 AM 30.2 °F 21.3 °F 17.6 °F 60% 30.12 in 10.0 mi West 10.4 mph - N/A   Unknown
11:35 AM 30.2 °F 23.4 °F 17.6 °F 60% 30.11 in 10.0 mi NW 6.9 mph - N/A   Unknown
11:55 AM 32.0 °F 23.6 °F 19.4 °F 60% 30.10 in 10.0 mi WNW 10.4 mph - N/A   Unknown
12:15 PM 33.8 °F 25.8 °F 19.4 °F 56% 30.10 in 10.0 mi West 10.4 mph - N/A   Unknown
12:35 PM 33.8 °F 25.8 °F 19.4 °F 56% 30.10 in 10.0 mi West 10.4 mph - N/A   Unknown
12:55 PM 33.8 °F 27.0 °F 19.4 °F 56% 30.09 in 10.0 mi West 8.1 mph - N/A   Unknown
1:15 PM 35.6 °F 29.2 °F 19.4 °F 52% 30.08 in 10.0 mi West 8.1 mph - N/A   Unknown
1:35 PM 35.6 °F 28.0 °F 19.4 °F 52% 30.08 in 10.0 mi WSW 10.4 mph - N/A   Unknown
1:55 PM 35.6 °F 29.2 °F 19.4 °F 52% 30.08 in 10.0 mi WNW 8.1 mph - N/A   Unknown
2:15 PM 37.4 °F 30.3 °F 19.4 °F 48% 30.07 in 10.0 mi West 10.4 mph - N/A   Unknown
2:35 PM 37.4 °F 32.8 °F 19.4 °F 48% 30.07 in 10.0 mi West 5.8 mph - N/A   Unknown
2:55 PM 37.4 °F 32.1 °F 19.4 °F 48% 30.06 in 10.0 mi WNW 6.9 mph - N/A   Unknown
3:15 PM 37.4 °F 30.8 °F 19.4 °F 48% 30.06 in 10.0 mi WNW 9.2 mph - N/A   Unknown
3:35 PM 37.4 °F 30.8 °F 19.4 °F 48% 30.06 in 10.0 mi West 9.2 mph - N/A   Unknown
3:55 PM 37.4 °F 30.3 °F 19.4 °F 48% 30.05 in 10.0 mi NW 10.4 mph - N/A   Unknown
4:15 PM 37.4 °F 32.8 °F 19.4 °F 48% 30.05 in 10.0 mi NNW 5.8 mph - N/A   Unknown
4:35 PM 37.4 °F 30.3 °F 17.6 °F 45% 30.05 in 10.0 mi WNW 10.4 mph - N/A   Unknown
4:55 PM 37.4 °F 32.1 °F 19.4 °F 48% 30.05 in 10.0 mi NW 6.9 mph - N/A   Unknown
5:15 PM 35.6 °F 28.6 °F 19.4 °F 52% 30.05 in 10.0 mi North 9.2 mph - N/A   Unknown
5:35 PM 35.6 °F 29.2 °F 17.6 °F 48% 30.06 in 10.0 mi NW 8.1 mph - N/A   Unknown
5:55 PM 33.8 °F 26.4 °F 17.6 °F 52% 30.06 in 10.0 mi NW 9.2 mph - N/A   Unknown
6:15 PM 33.8 °F 27.7 °F 17.6 °F 52% 30.06 in 10.0 mi NNW 6.9 mph - N/A   Unknown
6:35 PM 28.4 °F 22.2 °F 17.6 °F 64% 30.06 in 10.0 mi North 5.8 mph - N/A   Unknown
6:55 PM 28.4 °F 22.2 °F 17.6 °F 64% 30.07 in 10.0 mi North 5.8 mph - N/A   Unknown
7:15 PM 28.4 °F 22.2 °F 17.6 °F 64% 30.07 in 10.0 mi North 5.8 mph - N/A   Unknown
7:35 PM 28.4 °F 23.3 °F 17.6 °F 64% 30.08 in 10.0 mi North 4.6 mph - N/A   Unknown
7:55 PM 28.4 °F 23.3 °F 17.6 °F 64% 30.08 in 10.0 mi NNW 4.6 mph - N/A   Unknown
8:15 PM 28.4 °F 22.2 °F 17.6 °F 64% 30.08 in 10.0 mi NNW 5.8 mph - N/A   Unknown
8:55 PM 28.4 °F 23.3 °F 19.4 °F 69% 30.09 in 10.0 mi North 4.6 mph - N/A   Unknown
9:15 PM 28.4 °F 23.3 °F 19.4 °F 69% 30.10 in 10.0 mi North 4.6 mph - N/A   Unknown
9:35 PM 28.4 °F 22.2 °F 19.4 °F 69% 30.11 in 10.0 mi NNW 5.8 mph - N/A   Unknown
9:55 PM 28.4 °F 23.3 °F 19.4 °F 69% 30.11 in 10.0 mi NNW 4.6 mph - N/A   Unknown
10:15 PM 26.6 °F 20.0 °F 17.6 °F 69% 30.11 in 10.0 mi NNW 5.8 mph - N/A   Unknown
10:35 PM 26.6 °F 21.2 °F 17.6 °F 69% 30.12 in 10.0 mi NNW 4.6 mph - N/A   Unknown
10:55 PM 26.6 °F - 17.6 °F 69% 30.13 in 10.0 mi Calm Calm - N/A   Unknown
11:15 PM 26.6 °F - 19.4 °F 74% 30.12 in 10.0 mi Calm Calm - N/A   Unknown
11:55 PM 26.6 °F - 17.6 °F 69% 30.12 in 10.0 mi Calm Calm - N/A   Unknown